{"data":{"norad_id":68162,"epoch":"2026-09-20T03:08:42.828000Z","epoch_age_seconds":87561,"freshness":"FRESH","line1":"1 68162U 26049W   26263.13105125  .00005797  00000+0  18174-3 0  9992","line2":"2 68162  97.2842 283.0799 0001412  92.3381 267.8023 15.33446488 29442","mean_motion":15.33446488,"eccentricity":0.0001412,"inclination_deg":97.2842,"raan_deg":283.0799,"arg_perigee_deg":92.3381,"mean_anomaly_deg":267.8023,"bstar":0.00018174,"rev_number":2944,"period_min":93.906113533712,"perigee_km":464.5724202251,"apogee_km":466.50507425612,"semimajor_km":6843.6757472406,"source":"CELESTRAK","updated_at":"2026-09-20T09:00:43.796531Z"}}